Location: *
(33.8649°S, 62.1526°E)
Time: 12:55:49
(UTC+00:00)

Resurs 01 Rocket - Pass Details

Date: 17 January 2021
Orbit: 634 x 645 km, 98.0° (Epoch: 02 March)

Event Time Altitude Azimuth Distance (km) Brightness Sun altitude
Rises 17:22:19 0° 171° (S) 2,982 5.6 -23.6°
Reaches altitude 10° 17:24:33 10° 172° (S) 2,066 4.8 -23.9°
Maximum altitude 17:29:03 74° 256° (WSW) 681 1.7 -24.5°
Enters shadow 17:29:40 62° 312° (NW) 732 1.8 -24.6°
